Location: Champs
(48.8539°N, 2.6040°E)
Time: 13:31:20
(UTC+00:00)

CZ-4C R/B - Pass Details

Date: 26 October 2021
Orbit: 596 x 1405 km, 63.4° (Epoch: 06 December)

Event Time Altitude Azimuth Distance (km) Brightness Sun altitude
Exits shadow 04:55:21 16° 301° (WNW) 2,627 4.2 -15.7°
Maximum altitude 05:00:40 39° 242° (WSW) 1,822 3.5 -14.8°
Drops below altitude 10° 05:08:18 10° 178° (S) 3,430 5.4 -13.5°
Sets 05:11:31 0° 172° (S) 4,440 6.1 -13.0°
